Tracking 20370 objects as of 20-Feb-2020
HD Live streaming from Space Station
objects crossing your sky now
Track the group of recently launched Starlink satellites

COSMOS 1394

Track COSMOS 1394 now!
10-day predictions
COSMOS 1394 is classified as:


NORAD ID: 13381
Int'l Code: 1982-073G
Perigee: 1,481.3 km
Apogee: 1,502.6 km
Inclination: 74.0 °
Period: 115.6 minutes
Semi major axis: 7862 km
RCS: 0.7023 m2 (medium)
Launch date: July 21, 1982
Source: Commonwealth of Independent States (former USSR) (CIS)
Launch site: PLESETSK MISSILE AND SPACE COMPLEX (PKMTR)
aabbcc
Your satellite tracking list
Your tracking list is empty




NASA's NSSDC Master Catalog

Two Line Element Set (TLE):
1 13381U 82073G   20050.51990878 -.00000019  00000-0 -24635-4 0  9996
2 13381  74.0164 313.7662 0013530 356.1834 177.6203 12.45152949708575
Source of the keplerian elements: AFSPC